Weather reports worldwide

Advertisment
Hoogeveen aws, Netherlands (6279): temperature & dewpoint: 09.08.2020 21:00:00 - 15.08.2020 21:00:00 (CEST)Hoogeveen aws, Netherlands (6279): temperature 5cm: 09.08.2020 21:00:00 - 15.08.2020 21:00:00 (CEST)Hoogeveen aws, Netherlands (6279): wind speed & gusts: 09.08.2020 21:00:00 - 15.08.2020 21:00:00 (CEST)Hoogeveen aws, Netherlands (6279): wind direction: 09.08.2020 21:00:00 - 15.08.2020 21:00:00 (CEST)Hoogeveen aws, Netherlands (6279): reduced air pressure: 09.08.2020 21:00:00 - 15.08.2020 21:00:00 (CEST)Hoogeveen aws, Netherlands (6279): visibility: 09.08.2020 21:00:00 - 15.08.2020 21:00:00 (CEST)Hoogeveen aws, Netherlands (6279): precipitation: 09.08.2020 21:00:00 - 15.08.2020 21:00:00 (CEST)
Date & Time tt [°C] td [°C] tt 5cm [°C] ff [km/h] ff [kn] fx [km/h] fx [kn] dd ppp [hPa] vv [km] rr [mm]
15.08.2020 21:00:00 21,9 20,2 21,5 0 0 7 4 N 1014,4 8 0,0
15.08.2020 20:00:00 23,5 20,7 23,6 4 2 11 6 SSE 1014,4 10 0,0
15.08.2020 19:00:00 24,3 20,6 25,0 11 6 14 8 E 1014,1 11 0,0
15.08.2020 18:00:00 24,9 20,7 26,0 7 4 11 6 E 1014,4 11 0,0
15.08.2020 17:00:00 24,7 19,9 26,0 4 2 11 6 E 1014,4 12 0,0
15.08.2020 16:00:00 24,1 20,1 24,8 4 2 11 6 SSE 1014,6 11 0,0
15.08.2020 15:00:00 23,6 20,7 24,1 7 4 11 6 SSW 1015,0 10 0,0
15.08.2020 14:00:00 23,9 19,9 25,0 7 4 14 8 SSE 1015,4 12 0,0
15.08.2020 13:00:00 24,3 20,0 26,2 4 2 11 6 ESE 1015,3 14 0,0
15.08.2020 12:00:00 23,8 20,1 24,9 4 2 7 4 SW 1015,3 9 0,0
15.08.2020 11:00:00 22,8 20,1 23,5 4 2 7 4 WSW 1015,2 11 0,0
15.08.2020 10:00:00 22,8 20,1 23,6 4 2 7 4 W 1014,8 6 0,0
15.08.2020 09:00:00 21,0 19,2 21,4 7 4 7 4 WNW 1014,7 6 0,0
15.08.2020 08:00:00 19,9 19,1 19,9 4 2 7 4 SW 1014,2 8 0,0
15.08.2020 07:00:00 19,1 18,7 19,0 0 0 4 2 N 1014,0 8 0,0
15.08.2020 06:00:00 18,8 18,5 18,4 4 2 7 4 E 1013,6 9 0,0
15.08.2020 05:00:00 18,6 18,2 18,6 4 2 4 2 NE 1013,5 9 0,0
15.08.2020 04:00:00 18,7 18,2 18,4 4 2 7 4 NE 1013,7 12 0,0
15.08.2020 03:00:00 18,8 18,2 18,6 0 0 7 4 N 1013,7 13 0,0
15.08.2020 02:00:00 19,0 18,6 18,6 0 0 11 6 N 1013,8 15 0,0
15.08.2020 01:00:00 18,9 18,4 18,2 7 4 11 6 NNE 1014,1 17 0,0
15.08.2020 00:00:00 18,5 18,0 18,4 7 4 7 4 ENE 1014,1 19 0,0
14.08.2020 23:00:00 19,4 18,7 19,2 7 4 11 6 WSW 1014,0 22 0,0
14.08.2020 22:00:00 20,7 19,0 20,2 7 4 11 6 E 1013,4 31 0,0
14.08.2020 21:00:00 21,8 20,2 21,8 4 2 7 4 ENE 1013,2 32 0,0
14.08.2020 20:00:00 22,8 20,3 23,0 7 4 11 6 E 1012,7 43 0,0
14.08.2020 19:00:00 23,6 20,3 24,2 7 4 14 8 ENE 1012,5 48 0,0
14.08.2020 18:00:00 23,4 20,5 23,9 14 8 22 12 N 1012,2 29 0,3
14.08.2020 17:00:00 25,9 18,6 27,8 14 8 25 14 NE 1012,1 66 0,0
14.08.2020 16:00:00 25,0 19,0 26,2 11 6 29 16 NE 1012,1 47 0,0
14.08.2020 15:00:00 26,4 20,4 28,2 22 12 32 18 NNE 1012,0 34 0,0
14.08.2020 14:00:00 28,4 18,6 31,1 11 6 18 10 SSW 1012,2 28 0,0
14.08.2020 13:00:00 27,8 19,3 29,0 4 2 14 8 NNW 1012,4 28 0,0
14.08.2020 12:00:00 25,7 20,3 27,5 4 2 14 8 SE 1012,5 17 0,0
14.08.2020 11:00:00 24,4 20,4 25,4 7 4 14 8 ESE 1012,5 21 0,0
14.08.2020 10:00:00 22,2 19,8 23,3 7 4 11 6 SE 1012,5 12 0,0
14.08.2020 09:00:00 21,2 20,0 21,4 4 2 11 6 ESE 1012,8 7 0,0
14.08.2020 08:00:00 20,1 19,7 20,2 7 4 11 6 ENE 1012,5 4,1 0,0
14.08.2020 07:00:00 19,7 19,4 19,5 7 4 7 4 SE 1012,3 5 0,0
14.08.2020 06:00:00 19,6 19,4 19,4 4 2 11 6 SW 1011,9 8 0,0
14.08.2020 05:00:00 19,7 19,4 19,4 7 4 11 6 S 1011,9 6 0,0
14.08.2020 04:00:00 19,8 19,8 19,5 4 2 7 4 W 1011,9 2,5 0,0
14.08.2020 03:00:00 20,5 20,3 20,4 7 4 11 6 S 1012,1 4,5 0,0
14.08.2020 02:00:00 20,8 20,4 20,7 4 2 11 6 N 1011,7 5 0,1
14.08.2020 01:00:00 21,0 20,6 21,0 7 4 14 8 SSE 1012,0 9 1,3
14.08.2020 00:00:00 21,8 20,4 21,7 4 2 14 8 S 1011,9 16 0,5
13.08.2020 23:00:00 23,6 19,3 23,5 7 4 25 14 SSW 1012,0 26 0,0
13.08.2020 22:00:00 23,7 19,3 23,2 7 4 11 6 ENE 1011,4 23 0,0
13.08.2020 21:00:00 25,2 18,4 24,3 7 4 18 10 ESE 1011,0 32 0,0
13.08.2020 20:00:00 26,6 18,4 26,4 4 2 25 14 E 1010,9 36 0,0
13.08.2020 19:00:00 30,1 20,2 30,3 4 2 7 4 WSW 1010,5 40 0,0
13.08.2020 18:00:00 30,0 18,2 29,9 4 2 11 6 SSE 1010,5 37 0,0
13.08.2020 17:00:00 31,6 16,0 32,3 7 4 14 8 E 1010,9 39 0,0
13.08.2020 16:00:00 31,6 16,1 33,5 11 6 22 12 E 1011,2 40 0,0
13.08.2020 15:00:00 31,6 15,6 35,0 11 6 22 12 E 1011,6 43 0,0
13.08.2020 14:00:00 31,1 15,4 34,4 7 4 22 12 E 1011,8 52 0,0
13.08.2020 13:00:00 30,1 15,9 33,7 14 8 22 12 ESE 1011,9 37 0,0
13.08.2020 12:00:00 29,3 16,9 32,4 11 6 22 12 ENE 1012,3 40 0,0
13.08.2020 11:00:00 27,5 17,9 30,1 11 6 22 12 E 1012,2 38 0,0
13.08.2020 10:00:00 25,0 17,6 26,3 14 8 18 10 E 1012,6 37 0,0
13.08.2020 09:00:00 23,4 17,6 23,1 11 6 14 8 E 1012,7 29 0,0
13.08.2020 08:00:00 21,7 17,4 21,3 11 6 14 8 E 1012,7 28 0,0
13.08.2020 07:00:00 19,4 16,7 18,5 7 4 11 6 ENE 1012,5 25 0,0
13.08.2020 06:00:00 19,3 16,2 17,4 7 4 11 6 E 1012,4 23 0,0
13.08.2020 05:00:00 19,6 16,3 18,1 7 4 11 6 E 1012,4 27 0,0
13.08.2020 04:00:00 19,9 16,1 17,8 11 6 14 8 E 1012,4 26 0,0
13.08.2020 03:00:00 19,5 16,2 18,2 11 6 14 8 ENE 1012,9 28 0,0
13.08.2020 02:00:00 19,7 16,2 17,4 7 4 11 6 NE 1013,1 29 0,0
13.08.2020 01:00:00 20,0 16,3 18,0 4 2 11 6 E 1013,6 27 0,0
13.08.2020 00:00:00 20,4 16,9 18,6 7 4 7 4 E 1013,8 21 0,0
12.08.2020 23:00:00 21,8 17,2 20,1 4 2 7 4 E 1013,6 24 0,0
12.08.2020 22:00:00 22,9 17,5 21,6 4 2 7 4 E 1013,5 29 0,0
12.08.2020 21:00:00 25,9 17,0 24,4 7 4 11 6 ESE 1013,0 40 0,0
12.08.2020 20:00:00 29,5 15,6 29,1 7 4 18 10 ESE 1012,8 46 0,0
12.08.2020 19:00:00 31,6 15,5 32,1 11 6 25 14 ESE 1013,1 36 0,0
12.08.2020 18:00:00 33,0 15,7 34,6 14 8 22 12 SSE 1013,4 43 0,0
12.08.2020 17:00:00 32,8 15,6 34,8 14 8 25 14 SE 1013,7 36 0,0
12.08.2020 16:00:00 33,2 15,7 35,8 18 10 29 16 SE 1014,0 36 0,0
12.08.2020 15:00:00 32,9 16,8 35,7 18 10 29 16 ESE 1014,4 37 0,0
12.08.2020 14:00:00 32,0 16,3 35,0 14 8 32 18 ESE 1014,8 34 0,0
12.08.2020 13:00:00 30,6 16,3 34,1 14 8 25 14 E 1015,2 35 0,0
12.08.2020 12:00:00 29,8 16,3 32,4 14 8 32 18 ESE 1015,4 36 0,0
12.08.2020 11:00:00 28,1 16,3 30,5 14 8 22 12 ESE 1015,6 44 0,0
12.08.2020 10:00:00 26,3 15,5 28,1 14 8 25 14 ESE 1015,6 45 0,0
12.08.2020 09:00:00 24,1 15,1 25,0 14 8 22 12 E 1015,7 44 0,0
12.08.2020 08:00:00 22,6 14,4 22,5 11 6 18 10 E 1015,7 35 0,0
12.08.2020 07:00:00 21,0 13,8 19,5 11 6 18 10 E 1015,9 33 0,0
12.08.2020 06:00:00 21,0 13,4 19,2 11 6 14 8 E 1015,6 31 0,0
12.08.2020 05:00:00 21,2 13,4 19,2 7 4 14 8 E 1015,5 45 0,0
12.08.2020 04:00:00 21,6 13,8 19,2 7 4 11 6 E 1016,0 37 0,0
12.08.2020 03:00:00 22,6 14,5 20,9 7 4 18 10 ESE 1016,0 40 0,0
12.08.2020 02:00:00 23,7 15,4 22,3 11 6 22 12 E 1016,0 40 0,0
12.08.2020 01:00:00 23,8 15,7 22,2 11 6 18 10 E 1016,1 33 0,0
12.08.2020 00:00:00 25,3 15,4 23,8 11 6 18 10 E 1016,0 42 0,0
11.08.2020 23:00:00 26,2 15,1 24,3 11 6 14 8 E 1016,0 44 0,0
11.08.2020 22:00:00 26,9 15,9 25,5 11 6 18 10 E 1015,7 34 0,0
11.08.2020 21:00:00 28,8 16,7 27,9 14 8 25 14 E 1015,0 36 0,0
11.08.2020 20:00:00 29,9 17,2 29,3 11 6 22 12 E 1014,8 32 0,0
11.08.2020 19:00:00 31,1 16,8 30,8 14 8 29 16 E 1014,6 45 0,0
11.08.2020 18:00:00 33,2 16,4 34,7 18 10 29 16 E 1014,7 47 0,0
11.08.2020 17:00:00 33,2 16,8 34,8 18 10 32 18 ESE 1015,1 48 0,0
11.08.2020 16:00:00 32,9 15,9 34,6 18 10 32 18 ESE 1015,4 43 0,0
11.08.2020 15:00:00 33,1 15,5 35,7 22 12 43 23 ESE 1015,7 41 0,0
11.08.2020 14:00:00 32,1 15,7 35,4 25 14 36 19 E 1016,1 45 0,0
11.08.2020 13:00:00 30,9 16,8 34,1 22 12 36 19 E 1016,4 42 0,0
11.08.2020 12:00:00 29,5 16,9 32,4 25 14 40 21 E 1016,6 38 0,0
11.08.2020 11:00:00 28,3 16,7 30,2 25 14 36 19 E 1016,6 36 0,0
11.08.2020 10:00:00 26,4 16,9 27,9 18 10 32 18 E 1016,7 33 0,0
11.08.2020 09:00:00 23,8 17,1 24,3 14 8 25 14 E 1016,7 32 0,0
11.08.2020 08:00:00 21,3 16,6 21,3 11 6 22 12 E 1016,4 27 0,0
11.08.2020 07:00:00 19,8 16,2 18,9 11 6 18 10 ENE 1016,6 24 0,0
11.08.2020 06:00:00 19,4 16,2 17,5 11 6 18 10 ENE 1016,3 18 0,0
11.08.2020 05:00:00 19,3 16,3 17,8 7 4 14 8 ENE 1016,4 20 0,0
11.08.2020 04:00:00 19,3 16,3 17,9 7 4 14 8 ENE 1016,6 18 0,0
11.08.2020 03:00:00 19,4 16,6 17,9 7 4 14 8 ENE 1016,8 21 0,0
11.08.2020 02:00:00 20,5 17,0 19,0 11 6 14 8 ENE 1016,6 23 0,0
11.08.2020 01:00:00 20,6 17,3 19,5 7 4 14 8 NE 1016,5 21 0,0
11.08.2020 00:00:00 21,6 17,5 20,0 11 6 14 8 NE 1016,5 27 0,0
10.08.2020 23:00:00 23,1 17,4 21,9 11 6 14 8 ENE 1016,3 27 0,0
10.08.2020 22:00:00 25,2 16,8 23,3 11 6 18 10 ENE 1015,9 31 0,0
10.08.2020 21:00:00 26,3 16,7 25,3 7 4 14 8 ENE 1015,2 38 0,0
10.08.2020 20:00:00 29,8 15,6 29,4 11 6 22 12 E 1014,7 57 0,0
10.08.2020 19:00:00 30,9 15,3 31,2 14 8 25 14 E 1014,6 51 0,0
10.08.2020 18:00:00 32,4 15,3 33,6 11 6 22 12 E 1014,7 62 0,0
10.08.2020 17:00:00 32,3 15,2 34,1 14 8 25 14 ESE 1014,9 59 0,0
10.08.2020 16:00:00 32,3 15,6 34,9 18 10 29 16 E 1015,4 58 0,0
10.08.2020 15:00:00 32,6 14,8 35,5 14 8 32 18 E 1015,7 73 0,0
10.08.2020 14:00:00 31,7 14,8 34,3 18 10 29 16 ESE 1016,0 73 0,0
10.08.2020 13:00:00 31,3 15,6 34,0 14 8 29 16 E 1016,1 61 0,0
10.08.2020 12:00:00 29,5 16,3 32,7 14 8 22 12 ENE 1016,3 61 0,0
10.08.2020 11:00:00 28,1 17,1 30,5 11 6 18 10 ENE 1016,3 55 0,0
10.08.2020 10:00:00 25,8 17,4 27,5 11 6 14 8 ENE 1016,4 37 0,0
10.08.2020 09:00:00 22,1 16,2 23,2 11 6 18 10 E 1016,8 38 0,0
10.08.2020 08:00:00 19,5 16,4 19,1 7 4 11 6 E 1016,8 24 0,0
10.08.2020 07:00:00 15,9 15,1 14,7 7 4 7 4 NNE 1016,6 14 0,0
10.08.2020 06:00:00 15,9 15,0 14,0 4 2 7 4 NNE 1016,3 18 0,0
10.08.2020 05:00:00 16,5 15,3 14,6 4 2 11 6 NNE 1016,7 24 0,0
10.08.2020 04:00:00 16,8 15,4 15,1 7 4 11 6 ENE 1017,0 27 0,0
10.08.2020 03:00:00 17,1 15,5 15,6 7 4 7 4 NE 1016,8 31 0,0
10.08.2020 02:00:00 18,3 15,7 16,6 7 4 7 4 NE 1016,8 37 0,0
10.08.2020 01:00:00 19,6 16,1 18,6 7 4 18 10 NE 1016,9 58 0,0
10.08.2020 00:00:00 21,0 15,7 20,2 11 6 18 10 NE 1017,0 70 0,0
09.08.2020 23:00:00 21,2 15,8 19,7 11 6 18 10 NE 1017,1 49 0,0
09.08.2020 22:00:00 23,0 15,5 22,1 11 6 14 8 NE 1017,3 74 0,0
09.08.2020 21:00:00 25,4 14,7 24,6 14 8 22 12 NE 1017,0 75 0,0

tt = temperature
td = dewpoint
tt 5cm = temperature 5cm
ff = wind speed
fx = gusts
dd = wind direction
ppp = reduced air pressure
vv = visibility
rr = precipitation

Next stations